Regional Weather Roundup
Issued by NWS Burlington, VT

Home | Current Version | Previous Version | Text Only | Print | Product List | Glossary On
Versions: 1 2 3 4 5 6 7 8 9 10 11 12 13 14 15 16 17 18 19 20 21 22 23 24 25 26 27 28 29 30 31 32 33 34 35 36 37 38 39 40 41 42 43 44 45 46 47 48 49 50
000
ASUS41 KBTV 280230
RWRBTV
VERMONT REGIONAL WEATHER ROUNDUP
NATIONAL WEATHER SERVICE BURLINGTON VT
1000 PM EDT MON MAR 27 2017

NOTE: "FAIR" INDICATES FEW OR NO CLOUDS BELOW 12,000 FEET WITH NO
SIGNIFICANT WEATHER AND/OR OBSTRUCTIONS TO VISIBILITY.

* THESE REPORTS ARE NOT UNDER NWS QUALITY CONTROL AND/OR DO NOT
  REPORT WEATHER SUCH AS PRECIPITATION AND FOG.

VTZ001>019-280300-
_____VERMONT_____


CITY           SKY/WX    TMP DP  RH WIND       PRES   REMARKS
BURLINGTON     CLOUDY    38  37  97 SE3       29.95F
MONTPELIER     LGT RAIN  35  34  96 S5        30.01S WCI  31
MORRISVILLE    CLOUDY    34  31  88 S5        29.98F WCI  30
ST. JOHNSBURY*   N/A     35  35 100 MISG      29.98S
LYNDONVILLE*   DRIZZLE   34  34  99 CALM      29.99F
MIDDLEBURY*    LGT RAIN  35  35  99 CALM      29.96F
RUTLAND*       CLOUDY    38  34  85 SE7       29.97F
SPRINGFIELD    FOG       34  32  92 CALM      30.02F VSB 1/2
HIGHGATE*      CLOUDY    39  38  98 S6        29.94F
NEWPORT*       CLOUDY    35  34  94 S7        29.96F WCI  30
BENNINGTON     CLOUDY    39  37  92 CALM      29.98R
SUTTON*          N/A     32 N/A N/A MISG        N/A
ISLAND POND*     N/A     34 N/A N/A E3          N/A
GALLUP MILLS*    N/A     32 N/A N/A MISG        N/A
UNION VILLAGE*   N/A     34 N/A N/A MISG        N/A
MT. MANSFIELD*   N/A     37 N/A N/A W21         N/A  WCI  27

_____LAKE CHAMPLAIN_____


CITY           SKY/WX    TMP DP  RH WIND       PRES   REMARKS
BURTON ISLAND*   N/A     37  37 100 S10         N/A  WCI  30
COLCHESTER RF*   N/A     37  37 100 S17         N/A  WCI  28
DIAMOND ISL*     N/A     37  37 100 S9          N/A  WCI  31

$$

NYZ007-026>031-035-052-083-087-280300-
_____NORTHERN NEW YORK_____


CITY           SKY/WX    TMP DP  RH WIND       PRES   REMARKS
PLATTSBURGH    CLOUDY    37  36  96 SE5       29.94S
SARANAC LAKE   FOG       38  38 100 SW5       29.90S VSB 1
MASSENA        FOG       37  36  96 CALM      29.93S VSB 1/4
POTSDAM*       FOG       45  45 100 SW3       29.91F VSB 1/2
STARK FALLS*     N/A     39 N/A N/A SE6         N/A
WATERTOWN      CLOUDY    48  47  96 S3        29.91S
FT DRUM        CLOUDY    41  39  93 SE9       29.90S
ALBANY         CLOUDY    42  37  82 CALM      30.00S
GLENS FALLS    FOG       36  34  92 CALM      29.99R VSB 1/2

$$
NHZ002-005-011-280300-
_____NEW HAMPSHIRE_____


CITY           SKY/WX    TMP DP  RH WIND       PRES   REMARKS
LEBANON        CLOUDY    34  34 100 CALM      30.00F
KEENE          CLOUDY    36  34  92 CALM      30.02F
MT WASHINGTON  FOG       34  34 100 W36         N/A  VSB 0   WCI  19
PLYMOUTH       CLOUDY    33  33  98 CALM      30.03S FOG
WHITEFIELD     CLOUDY    35  30  82 CALM      29.98S

$$

_____REGIONAL QUEBEC LOCATIONS_____


CITY           SKY/WX    TMP DP  RH WIND       PRES   REMARKS
MONTREAL       DRIZZLE   37  36  93 CALM      29.92S FOG
QUEBEC CITY    FRZ DRZL  30  28  93 E10G17    30.02S FOG     WCI  21
SHERBROOKE     LGT RAIN  34  32  93 SE6       29.96S WCI  29

_____REGIONAL ONTARIO LOCATIONS_____


CITY           SKY/WX    TMP DP  RH WIND       PRES   REMARKS
OTTAWA         FOG       34  34 100 NE6       29.91R VSB 1/4 WCI  29

______KEY______
VSB  - VISIBILITY IN MILES
WCI  - WIND CHILL INDEX
HX   - HEAT INDEX
$$
NNNN




USA.gov is the U.S. government's official web portal to all federal, state and local government web resources and services.